Effective Sunday, March 17, 2024, the National Weather Service National Data Buoy Center will discontinue its Dial-A-Buoy Interactive Voice Response system. For more information, see Service Change Notice 24-06 (PDF).

Station WPOW1 - West Point, WA Image indicating link to RSS feed of recent meteorological observations for station WPOW1


Conditions at WPOW1 as of
(8:00 pm PST on 02/25/2024)
0400 GMT on 02/26/2024:
     

Click on the graph icon in the table below to see a time series plot of the last five days of that observation.

5-day plot - Wind Direction Wind Direction (WDIR): E ( 80 deg true )
5-day plot - Wind Speed Wind Speed (WSPD): 7 kts
5-day plot - Wind Gust Wind Gust (GST): 9 kts
5-day plot - Atmospheric Pressure Atmospheric Pressure (PRES):29.72 in
5-day plot - Pressure Tendency Pressure Tendency (PTDY):+0.04 in ( Rising )
5-day plot - Air Temperature Air Temperature (ATMP): 44.1 °F
5-day plot - Dew Point Dew Point (DEWP): 34.7 °F
5-day plot - Wind Chill Wind Chill (CHILL): 39.6 °F
5-day plot - Wind Speed at 10 Meters Wind Speed at 10 meters (WSPD10M): 8 kts
5-day plot - Wind Speed at 20 Meters Wind Speed at 20 meters (WSPD20M): 8 kts
5-day plot -  Wind Speed, Wind Gust and Atmospheric Pressure Combined plot of Wind Speed, Gust, and Air Pressure
Continuous Winds
TIME
(PST)
5-day plot - Wind Direction WDIR 5-day plot - Wind Speed WSPD
8:00 pmE ( 80 deg ) 7 kts
7:50 pmE ( 80 deg ) 8 kts
7:40 pmENE ( 58 deg ) 12 kts
7:30 pmNNE ( 33 deg ) 15 kts
7:20 pmNNE ( 31 deg ) 19 kts
7:10 pmNE ( 52 deg ) 18 kts
 
Peak gust during the measurement hour
TIME
(PST)
5-day plot - Gust Direction GDR 5-day plot - Gust Speed GST
7:06 pmENE ( 60 deg ) 27 kts
Previous observations
TIME
(PST)
5-day plot - Wind Direction
WDIR
 
5-day plot - Wind Speed
WSPD
kts
5-day plot - Wind Gust
GST
kts
5-day plot - Wave Height
WVHT
ft
5-day plot - Dominant Wave Period
DPD
sec
5-day plot - Average Wave Period
APD
sec
5-day plot - Mean Wave Direction
MWD
 
5-day plot - Atmospheric Pressure
PRES
in
5-day plot - Pressure Tendency
PTDY
in
5-day plot - Air Temperature
ATMP
°F
5-day plot - Water Temperature
WTMP
°F
5-day plot - Dew Point
DEWP
°F
5-day plot - Salinity
SAL
psu
5-day plot - Visibility
VIS
nmi
5-day plot - Tide (above MLLW)
TIDE
ft
2024-02-25 07:00 pm E 11 13----29.70+0.06 45.0- 35.4---
2024-02-25 06:00 pm NE 15 18----29.69+0.05 45.9- 37.2---
2024-02-25 05:00 pm NE 13 15----29.67+0.02 46.0- 42.1---
2024-02-25 04:00 pmSSW 22 24----29.64-0.04 50.5- 47.1---
2024-02-25 03:00 pmSSW 29 33----29.63-0.09 50.7- 48.0---
2024-02-25 02:00 pm S 30 34----29.65-0.10 50.4- 48.7---
2024-02-25 01:00 pm S 33 36----29.68-0.09 49.5- 49.5---
2024-02-25 12:00 pm S 32 36----29.72-0.08 48.9- 48.9---
2024-02-25 11:00 am S 31 35----29.75-0.06 48.4- 48.4---
2024-02-25 10:00 am S 32 37----29.77-0.05 48.2- 48.2---
2024-02-25 09:00 am S 29 33----29.80-0.03 48.2- 48.2---
2024-02-25 08:00 am S 26 29----29.81-0.06 47.8- 47.8---
2024-02-25 07:00 am S 27 31----29.82-0.08 47.8- 47.8---
2024-02-25 06:00 am S 31 34----29.83-0.10 48.2- 48.2---
2024-02-25 05:00 am S 20 21----29.87-0.09 48.4- 48.0---
2024-02-25 04:00 am S 16 17----29.90-0.07 48.4- 48.2---
2024-02-25 03:00 amSSW 15 17----29.93-0.05 48.6- 48.0---
2024-02-25 02:00 am S 15 16----29.96-0.04 48.6- 48.2---
2024-02-25 01:00 am S 13 14----29.97-0.04 48.9- 48.6---
2024-02-25 12:00 am S 19 21----29.98-0.05 48.7- 48.6---
2024-02-24 11:00 pm S 18 20----29.99-0.04 48.7- 48.4---
2024-02-24 10:00 pm S 15 16----30.01-0.02 48.6- 48.2---
2024-02-24 09:00 pm S 13 14----30.03-0.02 48.6- 48.6---
2024-02-24 08:00 pm S 12 13----30.03-0.03 48.7- 47.7---